GFSFLT1_500_rhum_036.txt.gz
RH
21 24 23 23 26 35 42 52 68 72 80 100 97 96 86 70 67 79 81 66 51 49 56 49 43 40 39 40 39 37 35 30
25 23 21 21 22 36 39 66 69 98 98 80 57 42 71 88 69 72 61 49 47 54 52 48 50 51 55 54 47 39 30 27
16 16 16 15 19 39 70 93 94 94 73 52 48 56 56 55 74 69 58 73 85 88 79 73 69 66 59 50 39 34 33 31
20 19 23 28 49 40 40 66 67 48 47 60 65 64 61 70 80 64 67 74 68 67 67 67 62 56 49 40 36 36 33 29
21 32 45 61 82 83 63 67 62 39 28 26 43 76 49 37 41 53 57 61 67 67 65 60 57 47 42 41 35 32 34 33
39 54 49 45 71 80 71 35 27 22 21 25 35 29 27 32 42 53 59 66 66 63 63 59 50 48 44 37 41 42 41 32
41 38 31 27 26 23 22 22 21 21 21 21 22 26 32 41 50 56 58 60 63 65 65 58 53 48 43 40 36 36 38 39
24 20 19 18 19 19 20 20 20 21 21 23 25 29 33 39 48 57 66 72 74 70 63 57 50 44 38 37 43 47 41 36
17 18 20 21 20 21 22 22 22 22 22 24 26 27 28 33 38 50 62 68 68 66 58 47 46 41 48 56 51 42 36 35
17 19 21 22 23 24 24 25 25 25 26 27 27 28 31 37 45 60 67 71 68 52 50 52 52 58 58 50 41 39 40 38
18 22 24 24 25 26 26 26 27 28 30 32 34 37 34 41 60 70 74 64 59 62 61 64 67 61 44 38 38 40 33 10
21 25 28 31 35 36 34 32 30 30 31 34 39 39 45 52 65 70 68 67 67 69 71 72 56 42 37 40 40 23 7 10
18 20 23 27 38 41 41 39 38 34 35 36 40 48 51 54 74 80 79 80 81 79 74 55 44 39 41 36 14 8 12 14
18 18 19 20 29 33 39 43 45 40 39 41 45 53 53 71 88 92 92 88 85 75 60 46 42 43 34 11 9 12 15 28
19 19 20 21 22 30 33 43 48 44 44 46 52 57 79 93 96 94 92 86 74 60 46 46 46 30 10 10 12 16 24 56
19 20 22 23 23 26 31 43 54 50 50 53 61 86 96 98 95 94 86 74 62 47 49 48 30 10 11 12 17 21 56 76
21 22 24 26 28 29 32 48 53 54 58 68 92 100 100 97 95 84 74 66 52 51 51 31 10 11 13 17 22 36 77 74
25 26 27 31 34 34 38 48 56 66 76 95 100 99 98 97 86 75 73 56 54 54 32 11 12 13 16 23 29 58 83 87
30 32 35 39 38 38 44 56 69 79 95 100 98 100 100 97 91 84 67 55 55 37 12 13 14 15 22 31 38 80 97 91

GFSFLT1_500_rhum_042.txt.gz
RH
15 14 14 14 19 16 19 29 60 49 47 58 68 69 75 62 53 29 22 17 20 21 26 26 27 26 31 34 44 61 67 67
30 25 22 14 23 39 42 21 23 24 39 45 38 50 52 42 28 20 18 19 22 21 20 22 28 31 32 39 51 59 68 71
27 25 23 13 20 18 28 16 24 49 49 59 56 40 18 18 19 19 21 21 22 22 26 26 27 33 34 32 41 50 60 61
17 17 16 19 18 49 20 23 35 26 31 23 19 19 21 21 22 22 23 22 23 25 27 30 32 30 29 32 41 45 50 54
15 18 24 21 16 32 27 26 21 21 18 19 21 23 24 26 26 28 28 29 28 29 32 33 35 36 33 33 47 60 62 64
16 22 17 20 34 31 24 20 18 19 21 22 24 26 28 29 28 31 33 35 36 36 40 38 37 34 33 40 59 66 62 59
18 17 23 24 24 18 18 18 18 21 23 25 28 29 31 32 32 34 34 37 43 55 52 44 40 37 41 65 76 79 75 63
17 21 18 17 17 19 19 20 22 24 26 28 31 34 38 38 37 39 40 42 50 59 50 46 44 48 70 79 77 72 67 62
16 16 14 15 17 19 21 23 24 26 27 26 27 29 37 40 39 39 40 45 53 51 48 48 53 71 82 82 77 74 66 61
16 16 14 14 15 17 18 18 18 19 19 19 20 21 23 29 32 32 33 35 49 50 52 54 73 87 81 78 78 76 74 74
15 15 16 16 17 17 18 18 18 19 19 20 20 22 24 26 28 30 57 64 52 58 60 72 92 86 79 84 89 93 90 66
17 18 18 18 18 18 19 19 19 20 21 23 23 25 26 31 35 45 54 52 61 67 76 94 95 87 93 100 98 90 58 34
18 18 18 18 16 16 22 27 25 25 26 27 28 29 33 40 39 48 51 68 75 85 97 91 89 93 100 100 89 58 31 24
17 15 14 14 18 22 24 30 30 28 33 34 35 40 49 45 48 56 72 74 92 97 88 90 100 100 97 82 59 31 21 26
17 16 18 22 25 26 24 27 31 34 42 51 52 56 51 50 68 70 72 95 93 87 86 99 100 100 92 69 54 29 24 24
28 33 35 25 24 27 32 37 41 48 55 61 58 63 57 76 64 76 99 94 87 92 100 100 100 100 100 80 43 27 24 11
28 34 34 32 36 43 50 53 57 64 64 50 72 68 76 62 87 95 87 83 86 100 100 100 98 94 70 42 30 21 11 11
24 29 38 48 46 50 57 57 57 47 46 59 73 64 72 97 98 90 97 100 100 100 100 100 100 99 81 43 24 14 10 14
26 27 28 40 39 40 50 40 40 47 65 63 59 82 99 100 86 98 100 97 100 100 100 98 96 95 59 27 15 10 14 18

GFSFLT1_500_rhum_045.txt.gz
RH
12 10 11 14 17 17 38 44 29 33 25 28 44 57 52 48 46 28 20 20 21 21 22 22 23 25 28 31 31 32 32 29
7 8 9 16 15 33 45 57 59 31 36 57 65 50 45 29 21 22 22 24 26 27 29 30 32 34 38 40 37 37 34 31
12 10 8 12 24 25 26 63 54 28 48 28 22 18 19 21 23 25 26 25 27 30 33 35 37 44 52 50 44 39 35 34
17 13 12 10 14 17 34 48 26 38 29 18 18 20 22 24 24 27 27 28 29 31 34 38 43 52 59 54 46 39 37 41
19 21 14 11 14 19 48 29 20 22 18 20 22 22 24 26 27 29 31 33 29 30 31 40 45 52 55 48 44 43 47 51
17 16 16 16 29 25 39 18 18 19 19 21 23 23 25 25 27 28 23 24 26 26 30 33 38 44 39 41 45 47 58 65
24 16 16 23 28 21 21 19 21 21 22 24 25 23 21 19 18 18 19 19 21 24 24 25 32 34 35 43 49 61 79 81
20 18 18 17 18 21 18 21 19 20 20 19 18 18 18 19 19 20 21 23 26 26 29 36 82 64 50 60 65 80 77 72
17 17 17 17 15 14 14 15 16 17 18 18 18 19 20 20 22 23 25 28 30 36 65 100 100 59 66 69 83 89 80 84
15 14 14 15 16 17 17 17 18 18 18 21 22 23 24 25 26 28 30 35 44 45 60 90 62 70 72 84 95 88 82 79
16 16 16 17 18 18 18 17 16 16 23 28 29 30 29 31 34 55 43 55 54 48 56 73 71 74 91 92 83 79 87 100
16 16 17 18 17 16 16 16 19 25 31 33 32 30 50 60 55 54 59 94 100 57 71 75 72 88 95 82 76 91 100 100
16 17 17 16 16 20 33 39 30 23 30 33 36 55 91 73 72 62 64 62 61 71 76 84 92 93 92 100 100 100 100 100
17 16 14 13 16 42 59 54 67 58 39 50 74 100 70 75 63 47 62 68 71 80 96 100 99 88 83 94 93 100 100 100
15 17 19 20 51 66 72 74 76 70 54 57 66 61 66 51 48 63 66 62 94 100 97 99 90 99 100 100 100 100 100 98
28 28 33 70 60 68 85 86 85 55 61 61 53 48 41 52 74 65 72 96 99 100 100 98 89 98 100 100 100 99 96 77
36 32 31 46 71 73 82 54 40 52 53 50 41 51 77 82 68 88 99 96 98 100 85 92 100 100 100 100 99 98 78 35
35 29 25 20 34 79 56 33 35 38 43 51 74 81 75 89 100 100 100 100 100 100 100 100 100 100 100 100 100 95 50 12
19 19 19 20 25 37 32 37 45 48 62 68 66 87 100 100 100 100 100 100 100 100 100 100 100 100 100 98 93 77 26 12

GFSFLT1_500_rhum_048.txt.gz
RH
12 15 17 19 21 19 32 46 52 51 36 23 30 58 67 44 30 19 21 23 25 26 26 28 31 33 35 39 43 49 53 54
14 21 24 18 14 15 18 26 49 65 42 35 65 35 25 19 21 22 24 26 28 29 31 31 34 32 33 36 37 41 50 48
15 17 18 17 18 17 17 20 51 55 30 48 25 19 20 21 22 24 26 27 27 29 29 32 32 31 31 27 25 30 41 41
18 17 18 18 22 23 23 43 48 52 37 23 18 20 22 23 24 25 23 22 20 20 22 24 25 28 25 25 27 35 46 54
28 26 23 19 19 24 36 58 28 55 23 18 19 21 24 25 24 20 19 19 19 22 22 23 25 26 28 32 41 61 76 43
19 26 20 13 13 30 32 46 24 42 35 21 22 22 21 19 18 18 19 19 21 24 25 24 25 27 33 39 94 100 91 53
36 20 19 19 21 28 31 23 19 36 34 19 18 18 19 19 18 19 20 22 23 22 23 25 29 38 45 42 59 59 52 55
16 15 16 17 17 16 20 40 23 18 17 18 19 19 19 19 21 22 24 25 24 28 38 43 45 57 54 42 47 52 55 66
17 15 16 15 22 43 32 40 27 19 19 19 19 19 19 16 17 20 22 23 47 84 56 56 57 80 100 80 60 59 73 80
16 16 16 17 31 32 47 21 18 19 16 18 24 19 12 11 21 31 52 74 85 71 72 65 53 100 99 73 60 81 89 89
17 18 18 19 34 39 24 17 17 18 25 31 47 56 82 76 65 94 96 97 86 74 68 50 62 67 75 71 85 83 88 95
19 19 19 18 18 18 18 17 19 33 52 78 97 90 83 96 100 100 100 100 87 74 51 63 72 77 87 95 85 91 91 76
21 23 20 20 19 20 21 28 45 59 60 74 93 100 100 93 99 89 92 76 56 62 74 81 75 94 96 90 89 94 91 91
22 24 23 19 17 25 34 54 56 68 92 100 100 96 71 93 62 76 78 57 65 77 77 84 100 100 100 100 100 100 100 100
19 15 11 23 29 51 75 50 89 96 88 95 100 81 83 70 57 72 69 69 67 86 97 96 95 90 94 99 100 100 100 100
18 35 29 43 56 44 53 60 78 85 90 95 80 96 67 57 65 66 65 78 91 92 96 91 91 96 98 100 100 100 100 100
22 19 47 41 57 56 56 73 81 88 90 52 80 79 61 75 64 78 93 98 100 100 99 96 100 100 100 100 100 100 100 100
30 30 25 18 21 61 68 75 69 55 58 67 74 77 70 90 93 98 100 99 89 94 100 100 100 100 100 100 100 100 97 66
19 15 13 12 12 15 21 23 32 62 72 61 55 83 100 100 100 94 86 95 100 100 100 100 100 100 100 100 94 50 18 15